Weather Roundup
Issued by NWS Chicago, IL

Home | Current Version | Previous Version | Text Only | Print | Product List | Glossary On
Versions: 1 2 3 4 5 6 7 8 9 10 11 12 13 14 15 16 17 18 19 20 21 22 23 24 25 26 27 28 29 30 31 32 33 34 35 36 37 38 39 40 41 42 43 44 45 46 47 48 49 50
000
NZUS59 KLOT 240508
HRRLOT

CHICAGO AREA WEATHER ROUNDUP
NATIONAL WEATHER SERVICE CHICAGO/ROMEOVILLE IL
1200 AM CDT THU AUG 24 2017

NOTE: "FAIR" INDICATES FEW OR NO CLOUDS BELOW 12,000 FEET WITH NO
SIGNIFICANT WEATHER AND/OR OBSTRUCTIONS TO VISIBILITY.

* THESE STATIONS ARE NOT UNDER NWS QUALITY CONTROL. THEY ALSO MAY NOT
  REPORT WEATHER SUCH AS PRECIPITATION OR FOG.

ILZ005-006-012>014-019>023-240600-
NORTHEAST ILLINOIS

CITY           SKY/WX    TMP DP  RH WIND       PRES   REMARKS
OHARE          PTCLDY    65  55  70 SW5       30.03S
MIDWAY         PTCLDY    67  56  67 CALM      30.03S
AURORA         CLEAR     57  55  93 CALM      30.05R
LANSING*       CLEAR     57  56  99 CALM      30.04S
JOLIET*        PTCLDY    60  58  96 CALM      30.05R
WAUKEGAN       CLEAR     57  56  96 CALM      30.03S
DUPAGE AIRPORT CLEAR     58  55  90 CALM      30.04R
WHEELING       CLEAR     61  58  90 CALM      30.05S
MORRIS*        CLEAR     57  55  92 CALM      30.03S
LEWIS AIRPORT* MOCLDY    61  56  85 CALM      30.04S
NORTHERLY ISL    N/A     66  55  67 S6          N/A
$$

WIZ051-052-058>065-066-070>072-240600-
SOUTHEAST WISCONSIN

CITY           SKY/WX    TMP DP  RH WIND       PRES   REMARKS
MILWAUKEE      PTCLDY    63  56  78 CALM      30.03S
KENOSHA*       CLEAR     57  55  93 SW3       30.04R
RACINE*        CLEAR     60  57  89 SW5       30.04F
WAUKESHA       CLEAR     54  50  87 CALM      30.04S
WEST BEND      CLEAR     52  52 100 CALM      30.03S
$$

INZ001>003-010>013-019-020-240600-
NORTHWEST INDIANA

CITY           SKY/WX    TMP DP  RH WIND       PRES   REMARKS
GARY*          CLEAR     56  53  89 CALM      30.05R
MICHIGAN CITY* NOT AVBL
RENSSELAER*    NOT AVBL
VALPARAISO     PTCLDY    58  55  90 CALM      30.05R
$$

LMZ740>746-240600-
SOUTHERN LAKE MICHIGAN

STATION/POSITION TIME  SKY/WX   TEMP WIND        PRES    VSBY
                                AIR  DIR/SP/G
                 (UTC)          (F)  (DEG/KT/KT) (MB)    (MI)
HARRISON CRIB    0440            69  170/  6/  7   N/A
BURNHAM HARBOR   NOT AVBL
CALUMET HARBOR   0442            66  180/  3/  4 1016.4S
BURNS HARBOR     0440            64  190/  3/  5 1017.6S
MICHIGAN CITY    0440            62  140/  4/  5   N/A
$$

ABBREVIATIONS USED IN REMARKS
   TC - TEMPERATURE IN CELSIUS
  WCI - WIND CHILL INDEX
   HX - HEAT INDEX
  VSB - VISIBILITY
$$




USA.gov is the U.S. government's official web portal to all federal, state and local government web resources and services.